Regional Weather Roundup
Issued by NWS

Home | Current Version | Previous Version | Text Only | Print | Product List | Glossary On
Versions: 1 2 3 4 5 6 7 8 9 10 11 12 13 14 15 16 17 18 19 20 21 22 23 24 25 26 27 28 29 30 31 32 33 34 35 36 37 38 39 40 41 42 43 44 45 46 47 48 49 50
000
ASUS43 KFSD 020910
RWRSD

WEATHER ROUNDUP FOR SOUTH DAKOTA
NATIONAL WEATHER SERVICE SIOUX FALLS SD
300 AM CST FRI DEC 02 2016

NOTE: "FAIR" INDICATES FEW OR NO CLOUDS BELOW 12,000 FEET WITH NO
SIGNIFICANT WEATHER AND/OR OBSTRUCTIONS TO VISIBILITY.


SDZ001>005-009-010-012>017-021000-
NORTHWEST AND NORTH CENTRAL SOUTH DAKOTA

CITY           SKY/WX    TMP DP  RH WIND       PRES   REMARKS
BUFFALO          N/A     23  21  92 E6        30.01R WCI  16
FAITH            N/A     26  26 100 CALM      30.11R
MOBRIDGE       CLOUDY    28  23  81 SE3       30.12R
$$

SDZ012>016-024>037-041>051-057-063-072>074-021000-
SOUTHWEST AND SOUTH CENTRAL SOUTH DAKOTA

CITY           SKY/WX    TMP DP  RH WIND       PRES   REMARKS
RAPID CTY ARPT CLOUDY    23  18  81 CALM      30.08R
PIERRE         CLOUDY    30  25  81 NW5       30.14R WCI  25
CUSTER         CLOUDY    20  15  81 CALM      30.01R
ELLSWORTH AFB  CLOUDY    23  20  87 CALM      30.07R
PHILIP         CLOUDY    23  22  96 W3        30.14R
PINE RIDGE     CLOUDY    15  14  95 E6        30.09R WCI   6
SPEARFISH      CLOUDY    28  23  80 W7        30.06R WCI  21
WINNER         CLOUDY    28  25  88 W7        30.15R WCI  21
$$

SDZ004>011-016>023-039-040-021000-
NORTHEAST SOUTH DAKOTA

CITY           SKY/WX    TMP DP  RH WIND       PRES   REMARKS
ABERDEEN       CLOUDY    28  24  85 NW5       30.16R WCI  23
WATERTOWN      CLOUDY    25  23  92 CALM      30.11R
BROOKINGS      CLOUDY    28  25  86 N9        30.12R WCI  20
SISSETON         N/A     28  24  85 N8        30.14R WCI  20
$$

SDZ017-020-022-023-036>040-048>070-021000-
SOUTHEAST SOUTH DAKOTA

CITY           SKY/WX    TMP DP  RH WIND       PRES   REMARKS
SIOUX FALLS    CLOUDY    33  33 100 NW5       30.12R WCI  29
HURON          CLOUDY    29  29 100 NE5       30.16R WCI  24
CHAMBERLAIN    CLOUDY    31  31  99 W6        30.15R WCI  25
MITCHELL       LGT SNOW  32  32 100 NW5       30.16R FOG     WCI  27
YANKTON        CLOUDY    32  28  86 W6        30.15R WCI  26
$$

ABBREVIATIONS USED IN REMARKS
   TC - TEMPERATURE IN CELSIUS
  WCI - WIND CHILL INDEX
   HX - HEAT INDEX
  VSB - VISIBILITY





USA.gov is the U.S. government's official web portal to all federal, state and local government web resources and services.